TimeEDT,TemperatureF,Dew PointF,Humidity,Sea Level PressureIn,VisibilityMPH,Wind Direction,Wind SpeedMPH,Gust SpeedMPH,PrecipitationIn,Events,Conditions,WindDirDegrees,DateUTC
12:46 AM,66.2,62.6,88,30.05,10.0,NNE,4.6,-,N/A,,Overcast,20,2013-10-16 04:46:00
12:53 AM,66.0,62.1,87,30.03,10.0,NNE,8.1,-,N/A,,Overcast,20,2013-10-16 04:53:00
1:53 AM,66.0,62.1,87,30.03,10.0,NNE,4.6,-,N/A,,Overcast,30,2013-10-16 05:53:00
2:53 AM,66.0,62.1,87,30.02,10.0,North,4.6,-,N/A,,Overcast,350,2013-10-16 06:53:00
3:53 AM,64.9,62.1,90,29.99,10.0,NNE,6.9,-,N/A,,Overcast,30,2013-10-16 07:53:00
4:53 AM,64.9,62.1,90,30.00,10.0,NNE,6.9,-,N/A,,Overcast,20,2013-10-16 08:53:00
5:53 AM,64.9,62.1,90,30.00,10.0,NNE,8.1,-,N/A,,Overcast,30,2013-10-16 09:53:00
6:04 AM,64.4,62.6,94,30.02,10.0,NNE,5.8,-,N/A,,Overcast,30,2013-10-16 10:04:00
6:53 AM,64.9,62.1,90,30.01,10.0,NNE,5.8,-,N/A,,Overcast,30,2013-10-16 10:53:00
7:53 AM,64.9,61.0,87,30.03,10.0,NNE,5.8,-,N/A,,Overcast,20,2013-10-16 11:53:00
8:53 AM,66.0,62.1,87,30.03,10.0,NNE,6.9,-,N/A,,Overcast,30,2013-10-16 12:53:00
9:23 AM,66.2,62.6,88,30.05,10.0,NNE,6.9,-,N/A,,Overcast,20,2013-10-16 13:23:00
9:49 AM,64.4,62.6,94,30.05,6.0,Calm,Calm,-,N/A,,Overcast,0,2013-10-16 13:49:00
9:53 AM,66.0,62.1,87,30.04,9.0,NE,3.5,-,N/A,,Overcast,50,2013-10-16 13:53:00
10:00 AM,66.2,62.6,88,30.05,10.0,NNE,4.6,-,N/A,,Overcast,30,2013-10-16 14:00:00
10:53 AM,66.9,61.0,81,30.04,10.0,North,3.5,-,N/A,,Overcast,10,2013-10-16 14:53:00
11:53 AM,68.0,60.1,76,30.02,10.0,Calm,Calm,-,N/A,,Overcast,0,2013-10-16 15:53:00
12:53 PM,69.1,60.1,73,30.01,10.0,NW,4.6,-,N/A,,Overcast,310,2013-10-16 16:53:00
1:53 PM,70.0,60.1,71,29.99,10.0,NNE,4.6,-,N/A,,Overcast,20,2013-10-16 17:53:00
2:53 PM,70.0,60.1,71,29.97,10.0,NNE,5.8,-,N/A,,Overcast,20,2013-10-16 18:53:00
3:53 PM,70.0,60.1,71,29.97,10.0,Calm,Calm,-,N/A,,Overcast,0,2013-10-16 19:53:00
4:53 PM,70.0,60.1,71,29.96,10.0,Calm,Calm,-,N/A,,Overcast,0,2013-10-16 20:53:00
5:53 PM,69.1,61.0,75,29.96,10.0,Calm,Calm,-,N/A,,Overcast,0,2013-10-16 21:53:00
6:53 PM,68.0,62.1,81,29.96,10.0,ESE,3.5,-,N/A,,Overcast,110,2013-10-16 22:53:00
7:11 PM,66.2,62.6,88,29.98,10.0,Calm,Calm,-,N/A,,Scattered Clouds,0,2013-10-16 23:11:00
7:53 PM,64.9,61.0,87,29.97,10.0,SSE,3.5,-,N/A,,Clear,150,2013-10-16 23:53:00
8:53 PM,64.9,61.0,87,29.99,10.0,SW,3.5,-,N/A,,Clear,220,2013-10-17 00:53:00
9:53 PM,64.9,61.0,87,29.97,10.0,Calm,Calm,-,N/A,,Clear,0,2013-10-17 01:53:00
10:53 PM,64.0,61.0,90,29.98,10.0,Calm,Calm,-,N/A,,Clear,0,2013-10-17 02:53:00
11:53 PM,63.0,61.0,93,29.97,10.0,Calm,Calm,-,N/A,,Clear,0,2013-10-17 03:53:00